ISS (ZARYA)

Last updated on July 7, 2021, 6:13 p.m. UTC

1 25544U 98067A   21188.62787601  .00000229  00000-0  12373-4 0  9990
2 25544  51.6436 241.6415 0001986 141.2144 354.6717 15.48768433291768
UTC
Height (km)
Latitude
Longitude
Inclination
Orbital Period
UTC large
Height (km)
Speed (km/s)
/
Latitude / Longitude
Inclination (degrees)
Orbital Period (minutes)
Azimuth
Elevation
Range (km)
Doppler Factor
iOS Compass Heading
iOS Angle